Location: Bretagne
(43.8474°N, 0.4650°W)
Time: 16:42:55
(UTC+00:00)

ACS3 Solar Sail - Visible Passes

Search period start: 13 March 2026 00:00
Search period end: 23 March 2026 00:00
Orbit: 884 x 975 km, 97.2° (Epoch: 12 March)

Date Brightness Start Highest point End Pass type
(mag) Time Alt. Az. Time Alt. Az. Time Alt. Az.
13 Mar 4.3 01:10:57 10° NNE 01:11:33 13° NNE 01:11:33 13° NNE visible
13 Mar 3.7 02:53:51 10° N 02:55:15 16° NNW 02:55:15 16° NNW visible
14 Mar 4.2 01:22:05 10° NNE 01:23:04 15° NNE 01:23:04 15° NNE visible
14 Mar 3.7 03:05:22 10° NNW 03:06:45 16° NNW 03:06:45 16° NNW visible
15 Mar 4.0 01:33:13 10° NNE 01:34:32 18° NNE 01:34:32 18° NNE visible
15 Mar 3.7 03:16:55 10° NNW 03:18:12 14° NNW 03:18:12 14° NNW visible
16 Mar 3.9 01:44:20 10° NNE 01:45:56 20° NNE 01:45:56 20° NNE visible
16 Mar 3.8 03:28:32 10° NNW 03:29:36 13° NNW 03:29:36 13° NNW visible
17 Mar 3.7 01:55:28 10° N 01:57:18 21° N 01:57:18 21° N visible
17 Mar 3.8 03:40:19 10° NNW 03:40:58 11° NW 03:40:58 11° NW visible
18 Mar 3.6 02:06:34 10° N 02:08:37 23° N 02:08:37 23° N visible
19 Mar 4.4 00:35:48 10° NE 00:36:12 12° NE 00:36:12 12° NE visible
19 Mar 3.5 02:17:40 10° N 02:19:52 23° N 02:19:52 23° N visible
20 Mar 4.2 00:46:29 10° NNE 00:47:25 14° NE 00:47:25 14° NE visible
20 Mar 3.4 02:28:45 10° N 02:31:05 23° NNW 02:31:05 23° NNW visible
21 Mar 4.0 00:57:11 10° NNE 00:58:35 17° NE 00:58:35 17° NE visible
21 Mar 3.4 02:39:50 10° N 02:42:15 23° NNW 02:42:15 23° NNW visible
22 Mar 3.9 01:07:54 10° NNE 01:09:42 20° NNE 01:09:42 20° NNE visible
22 Mar 3.4 02:50:55 10° N 02:53:21 21° NNW 02:53:21 21° NNW visible
